N180GS EGLC-LFPN

Flight info

Callsign N180GS
Flight time N/A
Altitude 6000
Route SOQQA 1H SODVU LZD ROU BAMES
Aircraft BE36/L-VGD/C

Departure

Time N/A
Airport London City Airport (EGLC)

Arrival

Time 2026-04-26 22:48
Airport Toussus-le-Noble Airport (LFPN)
Time Latitude Longitude Altitude Speed Heading
2026-04-26 22:48 48.74861 2.10923 513 ft 0 kts 130°
2026-04-26 22:59 48.74861 2.10924 513 ft 0 kts 130°
2026-04-26 23:01 48.74851 2.10916 513 ft 6 kts 269°
2026-04-26 23:01 48.74868 2.10882 514 ft 5 kts 283°
2026-04-26 23:01 48.74874 2.10810 515 ft 10 kts 294°
2026-04-26 23:01 48.74848 2.10686 518 ft 14 kts 271°
2026-04-26 23:02 48.74843 2.10500 523 ft 19 kts 268°
2026-04-26 23:02 48.74840 2.10310 527 ft 15 kts 270°
2026-04-26 23:02 48.74839 2.10284 528 ft 0 kts 266°
2026-04-26 23:03 48.74838 2.10267 528 ft 6 kts 266°
2026-04-26 23:03 48.74835 2.10135 531 ft 19 kts 268°
2026-04-26 23:03 48.74831 2.09962 535 ft 13 kts 268°
2026-04-26 23:03 48.74837 2.09799 535 ft 15 kts 297°
2026-04-26 23:04 48.74904 2.09735 535 ft 12 kts 357°
2026-04-26 23:04 48.74982 2.09783 535 ft 15 kts 35°
2026-04-26 23:04 48.75044 2.09840 535 ft 5 kts 32°
2026-04-26 23:04 48.75053 2.09848 535 ft 0 kts 32°
2026-04-26 23:10 48.75054 2.09850 535 ft 3 kts 32°
2026-04-26 23:10 48.75057 2.09852 535 ft 0 kts 31°
2026-04-26 23:11 48.75059 2.09854 535 ft 3 kts 31°
2026-04-26 23:11 48.75122 2.09919 534 ft 18 kts 48°
2026-04-26 23:12 48.75185 2.10148 531 ft 52 kts 70°
2026-04-26 23:12 48.75377 2.11055 616 ft 114 kts 73°
2026-04-26 23:12 48.75593 2.12338 1007 ft 132 kts 72°
2026-04-26 23:12 48.75891 2.13659 1537 ft 136 kts 69°
2026-04-26 23:13 48.76237 2.15115 1702 ft 157 kts 70°
2026-04-26 23:13 48.76611 2.16707 1841 ft 166 kts 70°
2026-04-26 23:13 48.77008 2.18384 1986 ft 171 kts 70°
2026-04-26 23:13 48.77412 2.20081 2119 ft 169 kts 70°
2026-04-26 23:14 48.77807 2.21741 2244 ft 166 kts 70°
2026-04-26 23:14 48.78203 2.23374 2366 ft 164 kts 70°
2026-04-26 23:14 48.78597 2.24985 2484 ft 160 kts 70°
2026-04-26 23:14 48.78990 2.26563 2479 ft 160 kts 69°
2026-04-26 23:15 48.79687 2.27844 2480 ft 163 kts 31°
2026-04-26 23:15 48.80750 2.28470 2483 ft 165 kts 22°
2026-04-26 23:15 48.81837 2.29045 2487 ft 165 kts 22°
2026-04-26 23:15 48.82920 2.29616 2487 ft 165 kts 22°
2026-04-26 23:16 48.84002 2.30190 2485 ft 164 kts 21°
2026-04-26 23:16 48.85064 2.30761 2487 ft 164 kts 22°
2026-04-26 23:16 48.86143 2.31340 2485 ft 165 kts 22°
2026-04-26 23:16 48.87237 2.31921 2481 ft 164 kts 22°
2026-04-26 23:17 48.88301 2.32488 2487 ft 164 kts 22°
2026-04-26 23:17 48.89382 2.33062 2486 ft 165 kts 22°
2026-04-26 23:17 48.90464 2.33639 2486 ft 165 kts 22°
2026-04-26 23:17 48.91599 2.33738 2475 ft 170 kts 344°
2026-04-26 23:18 48.92487 2.32576 2473 ft 175 kts 299°
2026-04-26 23:18 48.92722 2.30760 2481 ft 176 kts 274°
2026-04-26 23:18 48.92653 2.28904 2485 ft 177 kts 257°
2026-04-26 23:18 48.92343 2.27090 2492 ft 177 kts 254°
2026-04-26 23:19 48.91896 2.25351 2485 ft 177 kts 242°
2026-04-26 23:19 48.91216 2.23795 2485 ft 176 kts 231°
2026-04-26 23:19 48.90461 2.22321 2486 ft 176 kts 231°
2026-04-26 23:19 48.89704 2.20849 2491 ft 177 kts 231°
2026-04-26 23:20 48.88948 2.19380 2488 ft 176 kts 231°
2026-04-26 23:20 48.88192 2.17909 2487 ft 177 kts 231°
2026-04-26 23:20 48.87438 2.16431 2487 ft 177 kts 231°
2026-04-26 23:20 48.86693 2.14970 2491 ft 177 kts 231°
2026-04-26 23:21 48.85938 2.13493 2492 ft 177 kts 230°
2026-04-26 23:21 48.85184 2.12011 2486 ft 178 kts 231°
2026-04-26 23:21 48.84415 2.10510 2485 ft 178 kts 231°
2026-04-26 23:21 48.83667 2.09049 2484 ft 177 kts 230°
2026-04-26 23:22 48.82909 2.07567 2488 ft 177 kts 231°
2026-04-26 23:22 48.82178 2.06061 2481 ft 177 kts 241°
2026-04-26 23:22 48.81774 2.04292 2485 ft 178 kts 253°
2026-04-26 23:22 48.81433 2.02492 2482 ft 178 kts 253°
2026-04-26 23:23 48.81090 2.00691 2485 ft 178 kts 253°
2026-04-26 23:23 48.80746 1.98888 2486 ft 177 kts 253°
2026-04-26 23:23 48.80472 1.97447 2488 ft 177 kts 253°
2026-04-26 23:23 48.80129 1.95647 2489 ft 178 kts 253°
2026-04-26 23:24 48.79786 1.93842 2490 ft 178 kts 253°
2026-04-26 23:24 48.79446 1.92036 2487 ft 178 kts 253°
2026-04-26 23:24 48.79058 1.90258 2484 ft 177 kts 240°
2026-04-26 23:24 48.78142 1.89099 2484 ft 173 kts 195°
2026-04-26 23:25 48.77011 1.89028 2475 ft 153 kts 173°
2026-04-26 23:25 48.76007 1.88956 2477 ft 142 kts 191°
2026-04-26 23:25 48.75103 1.88447 2477 ft 136 kts 199°
2026-04-26 23:25 48.74249 1.87897 2478 ft 130 kts 200°
2026-04-26 23:26 48.73435 1.87359 2474 ft 127 kts 200°
2026-04-26 23:26 48.72611 1.86813 2477 ft 130 kts 199°
2026-04-26 23:26 48.71742 1.86666 2472 ft 125 kts 163°
2026-04-26 23:26 48.70987 1.87243 2475 ft 121 kts 133°
2026-04-26 23:27 48.70551 1.88288 2482 ft 116 kts 104°
2026-04-26 23:27 48.70520 1.89474 2482 ft 112 kts 77°
2026-04-26 23:27 48.70768 1.90573 2478 ft 110 kts 72°
2026-04-26 23:27 48.70927 1.91295 2474 ft 109 kts 72°
2026-04-26 23:28 48.71259 1.92766 2481 ft 113 kts 71°
2026-04-26 23:28 48.71517 1.93905 2488 ft 116 kts 71°
2026-04-26 23:28 48.71780 1.95068 2479 ft 118 kts 71°
2026-04-26 23:28 48.72042 1.96223 2426 ft 111 kts 71°
2026-04-26 23:29 48.72281 1.97283 2342 ft 104 kts 71°
2026-04-26 23:29 48.72518 1.98327 2222 ft 106 kts 71°
2026-04-26 23:29 48.72751 1.99353 2091 ft 104 kts 71°
2026-04-26 23:29 48.72989 2.00410 1937 ft 107 kts 71°
2026-04-26 23:30 48.73226 2.01464 1795 ft 99 kts 70°
2026-04-26 23:30 48.73440 2.02410 1642 ft 95 kts 70°
2026-04-26 23:30 48.73658 2.03372 1459 ft 97 kts 70°
2026-04-26 23:30 48.73876 2.04342 1303 ft 98 kts 70°
2026-04-26 23:31 48.74098 2.05325 1166 ft 98 kts 70°
2026-04-26 23:31 48.74318 2.06301 1046 ft 97 kts 69°
2026-04-26 23:31 48.74536 2.07264 948 ft 96 kts 69°
2026-04-26 23:31 48.74750 2.08230 830 ft 96 kts 68°
2026-04-26 23:32 48.74968 2.09198 679 ft 97 kts 68°
2026-04-26 23:32 48.75177 2.10148 535 ft 88 kts 64°
2026-04-26 23:32 48.75328 2.10801 511 ft 36 kts 71°
2026-04-26 23:32 48.75392 2.11069 502 ft 29 kts 71°
2026-04-26 23:33 48.75416 2.11294 498 ft 23 kts 109°
2026-04-26 23:33 48.75369 2.11480 499 ft 18 kts 116°
2026-04-26 23:33 48.75301 2.11586 499 ft 20 kts 169°
2026-04-26 23:33 48.75208 2.11479 499 ft 11 kts 249°
2026-04-26 23:34 48.75191 2.11397 499 ft 16 kts 251°
2026-04-26 23:34 48.75142 2.11180 503 ft 24 kts 251°
2026-04-26 23:34 48.75102 2.11036 507 ft 13 kts 232°
2026-04-26 23:34 48.75026 2.11004 509 ft 16 kts 184°
2026-04-26 23:35 48.74924 2.10906 512 ft 17 kts 232°
2026-04-26 23:35 48.74901 2.10860 514 ft 0 kts 233°
2026-04-26 23:35 48.74882 2.10826 515 ft 9 kts 217°
2026-04-26 23:35 48.74839 2.10856 515 ft 8 kts 138°
2026-04-26 23:36 48.74848 2.10895 514 ft 6 kts 53°
2026-04-26 23:36 48.74852 2.10902 513 ft 0 kts 53°